Time,TemperatureF,DewpointF,PressureIn,WindDirection,WindDirectionDegrees,WindSpeedMPH,WindSpeedGustMPH,Humidity,HourlyPrecipIn,Conditions,Clouds,dailyrainin,SoftwareType,DateUTC
2013-02-24 00:01:00,33.0,31.0,29.83,ENE,69,1.0,5.0,91,0.00,,,0.17,,2013-02-24 05:01:00,
2013-02-24 00:11:00,33.0,31.0,29.83,ENE,69,1.0,5.0,91,0.00,,,0.17,,2013-02-24 05:11:00,
2013-02-24 00:22:00,33.0,31.0,29.82,NNE,22,1.0,9.0,91,0.00,,,0.17,,2013-02-24 05:22:00,
2013-02-24 00:32:00,33.0,31.0,29.82,North,11,1.0,7.0,91,0.00,,,0.17,,2013-02-24 05:32:00,
2013-02-24 00:42:00,33.0,31.0,29.82,North,11,1.0,7.0,91,0.00,,,0.17,,2013-02-24 05:42:00,
2013-02-24 00:52:00,33.0,31.0,29.81,North,360,1.0,8.0,91,0.01,,,0.18,,2013-02-24 05:52:00,
2013-02-24 01:01:00,33.0,31.0,29.81,NW,306,1.0,4.0,91,0.01,,,0.18,,2013-02-24 06:01:00,
2013-02-24 01:11:00,33.0,31.0,29.81,NW,306,1.0,4.0,91,0.01,,,0.18,,2013-02-24 06:11:00,
2013-02-24 01:21:00,33.0,31.0,29.81,NNE,13,1.0,3.0,91,0.01,,,0.18,,2013-02-24 06:21:00,
2013-02-24 01:32:00,33.0,31.0,29.80,NNW,338,0.0,3.0,91,0.01,,,0.18,,2013-02-24 06:32:00,
2013-02-24 01:42:00,33.0,31.0,29.80,NNW,338,0.0,3.0,91,0.01,,,0.18,,2013-02-24 06:42:00,
2013-02-24 01:52:00,33.0,31.0,29.80,NNW,339,0.0,3.0,91,0.00,,,0.18,,2013-02-24 06:52:00,
2013-02-24 02:01:00,33.0,31.0,29.80,NE,34,0.0,1.0,91,0.00,,,0.18,,2013-02-24 07:01:00,
2013-02-24 02:12:00,33.0,31.0,29.80,NE,34,0.0,1.0,91,0.00,,,0.18,,2013-02-24 07:12:00,
2013-02-24 02:21:00,33.0,31.0,29.80,NE,34,0.0,1.0,91,0.00,,,0.18,,2013-02-24 07:21:00,
2013-02-24 02:32:00,33.0,31.0,29.80,NE,34,0.0,2.0,91,0.00,,,0.18,,2013-02-24 07:32:00,
2013-02-24 02:42:00,33.0,31.0,29.80,NE,34,0.0,2.0,91,0.00,,,0.18,,2013-02-24 07:42:00,
2013-02-24 02:52:00,34.0,32.0,29.79,NW,307,0.0,0.0,91,0.00,,,0.18,,2013-02-24 07:52:00,
2013-02-24 03:01:00,34.0,32.0,29.79,NW,320,0.0,2.0,91,0.00,,,0.18,,2013-02-24 08:01:00,
2013-02-24 03:11:00,34.0,32.0,29.79,NW,320,0.0,2.0,91,0.00,,,0.18,,2013-02-24 08:11:00,
2013-02-24 03:22:00,34.0,32.0,29.78,NW,313,0.0,3.0,91,0.00,,,0.18,,2013-02-24 08:22:00,
2013-02-24 03:32:00,34.0,32.0,29.78,NNW,345,1.0,3.0,91,0.00,,,0.18,,2013-02-24 08:32:00,
2013-02-24 03:42:00,34.0,32.0,29.78,NNW,345,1.0,3.0,91,0.00,,,0.18,,2013-02-24 08:42:00,
2013-02-24 03:54:00,34.0,32.0,29.77,NNW,343,2.0,6.0,91,0.00,,,0.18,,2013-02-24 08:54:00,
2013-02-24 04:01:00,34.0,32.0,29.78,NNW,334,0.0,3.0,91,0.00,,,0.18,,2013-02-24 09:01:00,
2013-02-24 04:11:00,34.0,32.0,29.78,NNW,334,0.0,3.0,91,0.00,,,0.18,,2013-02-24 09:11:00,
2013-02-24 04:21:00,34.0,32.0,29.79,NW,309,0.0,2.0,91,0.00,,,0.18,,2013-02-24 09:21:00,
2013-02-24 04:32:00,34.0,32.0,29.79,NW,314,1.0,3.0,91,0.00,,,0.18,,2013-02-24 09:32:00,
2013-02-24 04:42:00,34.0,32.0,29.79,NW,314,1.0,3.0,91,0.00,,,0.18,,2013-02-24 09:42:00,
2013-02-24 04:52:00,34.0,32.0,29.80,NW,314,0.0,2.0,91,0.00,,,0.18,,2013-02-24 09:52:00,
2013-02-24 05:01:00,34.0,32.0,29.79,NNW,346,1.0,3.0,91,0.01,,,0.19,,2013-02-24 10:01:00,
2013-02-24 05:11:00,34.0,32.0,29.79,NNW,346,1.0,3.0,91,0.01,,,0.19,,2013-02-24 10:11:00,
2013-02-24 05:21:00,34.0,32.0,29.78,NW,319,0.0,2.0,91,0.01,,,0.19,,2013-02-24 10:21:00,
2013-02-24 05:32:00,34.0,32.0,29.78,NW,319,0.0,2.0,91,0.01,,,0.19,,2013-02-24 10:32:00,
2013-02-24 05:42:00,34.0,32.0,29.78,NW,319,0.0,2.0,91,0.01,,,0.19,,2013-02-24 10:42:00,
2013-02-24 05:52:00,34.0,32.0,29.78,NNW,327,2.0,4.0,91,0.01,,,0.19,,2013-02-24 10:52:00,
2013-02-24 06:01:00,34.0,32.0,29.78,NNW,338,1.0,4.0,91,0.00,,,0.19,,2013-02-24 11:01:00,
2013-02-24 06:11:00,34.0,32.0,29.78,NNW,338,1.0,4.0,91,0.00,,,0.19,,2013-02-24 11:11:00,
2013-02-24 06:22:00,34.0,32.0,29.77,NNW,334,1.0,5.0,91,0.00,,,0.19,,2013-02-24 11:22:00,
2013-02-24 06:32:00,34.0,32.0,29.77,NNW,344,2.0,4.0,91,0.00,,,0.19,,2013-02-24 11:32:00,
2013-02-24 06:42:00,34.0,32.0,29.77,NNW,344,2.0,4.0,91,0.00,,,0.19,,2013-02-24 11:42:00,
2013-02-24 06:53:00,34.0,32.0,29.76,NNW,329,2.0,5.0,91,0.00,,,0.19,,2013-02-24 11:53:00,
2013-02-24 07:02:00,34.0,32.0,29.76,NW,304,1.0,2.0,91,0.00,,,0.19,,2013-02-24 12:02:00,
2013-02-24 07:11:00,34.0,32.0,29.76,NW,304,1.0,2.0,91,0.00,,,0.19,,2013-02-24 12:11:00,
2013-02-24 07:22:00,34.0,32.0,29.77,NNW,344,2.0,5.0,91,0.00,,,0.19,,2013-02-24 12:22:00,
2013-02-24 07:32:00,34.0,32.0,29.76,NNE,13,1.0,4.0,91,0.00,,,0.19,,2013-02-24 12:32:00,
2013-02-24 07:46:00,34.0,32.0,29.76,NNE,13,1.0,4.0,91,0.00,,,0.19,,2013-02-24 12:46:00,
2013-02-24 07:57:00,34.0,32.0,29.76,North,355,1.0,5.0,91,0.00,,,0.19,,2013-02-24 12:57:00,
2013-02-24 08:14:00,35.0,33.0,29.76,NW,315,1.0,6.0,91,0.00,,,0.19,,2013-02-24 13:14:00,
2013-02-24 08:26:00,35.0,33.0,29.75,NNW,334,2.0,6.0,91,0.00,,,0.19,,2013-02-24 13:26:00,
2013-02-24 08:45:00,35.0,33.0,29.75,WNW,284,2.0,3.0,91,0.00,,,0.19,,2013-02-24 13:45:00,
2013-02-24 08:55:00,36.0,34.0,29.76,NW,323,1.0,6.0,91,0.00,,,0.19,,2013-02-24 13:55:00,
2013-02-24 09:04:00,36.0,34.0,29.76,NNW,345,2.0,7.0,91,0.00,,,0.19,,2013-02-24 14:04:00,
2013-02-24 09:14:00,36.0,33.0,29.76,NW,326,1.0,5.0,90,0.00,,,0.19,,2013-02-24 14:14:00,
2013-02-24 09:25:00,36.0,33.0,29.76,NW,326,1.0,5.0,90,0.00,,,0.19,,2013-02-24 14:25:00,
2013-02-24 09:34:00,36.0,33.0,29.76,NNW,342,1.0,4.0,90,0.00,,,0.19,,2013-02-24 14:34:00,
2013-02-24 09:44:00,36.0,33.0,29.76,NNW,342,1.0,4.0,90,0.00,,,0.19,,2013-02-24 14:44:00,
2013-02-24 09:55:00,37.0,34.0,29.76,NNW,346,0.0,5.0,90,0.00,,,0.19,,2013-02-24 14:55:00,
2013-02-24 10:03:00,37.0,34.0,29.76,NW,318,2.0,5.0,89,0.00,,,0.19,,2013-02-24 15:03:00,
2013-02-24 10:13:00,37.0,34.0,29.76,NNW,348,1.0,5.0,89,0.00,,,0.18,,2013-02-24 15:13:00,
2013-02-24 10:24:00,37.0,34.0,29.76,NNW,348,1.0,5.0,89,0.00,,,0.18,,2013-02-24 15:24:00,
2013-02-24 10:32:00,37.0,34.0,29.75,WNW,303,3.0,8.0,88,0.00,,,0.18,,2013-02-24 15:32:00,
2013-02-24 10:42:00,37.0,34.0,29.75,WNW,303,3.0,8.0,88,0.00,,,0.18,,2013-02-24 15:42:00,
2013-02-24 10:53:00,38.0,35.0,29.75,NNW,338,2.0,6.0,88,0.00,,,0.18,,2013-02-24 15:53:00,
2013-02-24 11:01:00,38.0,34.0,29.75,NNW,342,4.0,8.0,87,0.00,,,0.18,,2013-02-24 16:01:00,
2013-02-24 11:12:00,38.0,34.0,29.75,NNW,342,4.0,8.0,87,0.00,,,0.18,,2013-02-24 16:12:00,
2013-02-24 11:21:00,39.0,35.0,29.76,North,355,1.0,9.0,85,0.00,,,0.18,,2013-02-24 16:21:00,
2013-02-24 11:32:00,39.0,35.0,29.75,NW,315,2.0,7.0,84,0.00,,,0.18,,2013-02-24 16:32:00,
2013-02-24 11:42:00,39.0,35.0,29.75,NW,315,2.0,7.0,84,0.00,,,0.18,,2013-02-24 16:42:00,
2013-02-24 11:52:00,40.0,35.0,29.75,WNW,298,1.0,6.0,83,0.00,,,0.18,,2013-02-24 16:52:00,
2013-02-24 12:01:00,40.0,35.0,29.75,NW,325,2.0,7.0,82,0.00,,,0.18,,2013-02-24 17:01:00,
2013-02-24 12:11:00,40.0,35.0,29.75,NW,325,2.0,7.0,82,0.00,,,0.18,,2013-02-24 17:11:00,
2013-02-24 12:22:00,40.0,35.0,29.75,North,350,3.0,9.0,82,0.00,,,0.17,,2013-02-24 17:22:00,
2013-02-24 12:32:00,40.0,35.0,29.75,NW,309,2.0,6.0,83,0.00,,,0.17,,2013-02-24 17:32:00,
2013-02-24 12:42:00,40.0,35.0,29.75,NW,309,2.0,6.0,83,0.00,,,0.17,,2013-02-24 17:42:00,
2013-02-24 12:53:00,40.0,35.0,29.74,NNW,327,2.0,8.0,82,0.00,,,0.17,,2013-02-24 17:53:00,
2013-02-24 13:02:00,40.0,34.0,29.74,NW,317,4.0,9.0,80,0.00,,,0.17,,2013-02-24 18:02:00,
2013-02-24 13:11:00,40.0,34.0,29.74,NW,317,4.0,9.0,80,0.00,,,0.17,,2013-02-24 18:11:00,
2013-02-24 13:22:00,40.0,34.0,29.73,NNW,328,2.0,7.0,80,0.00,,,0.15,,2013-02-24 18:22:00,
2013-02-24 13:32:00,41.0,34.0,29.74,NNW,342,2.0,6.0,77,0.00,,,0.15,,2013-02-24 18:32:00,
2013-02-24 13:42:00,41.0,34.0,29.74,NNW,342,2.0,6.0,77,0.00,,,0.15,,2013-02-24 18:42:00,
2013-02-24 13:52:00,41.0,34.0,29.74,NNW,346,2.0,8.0,76,0.00,,,0.15,,2013-02-24 18:52:00,
2013-02-24 14:01:00,40.0,33.0,29.74,NW,323,4.0,13.0,76,0.00,,,0.15,,2013-02-24 19:01:00,
2013-02-24 14:12:00,40.0,33.0,29.74,NW,323,4.0,13.0,76,0.00,,,0.15,,2013-02-24 19:12:00,
2013-02-24 14:22:00,40.0,33.0,29.73,NW,311,3.0,12.0,76,0.00,,,0.13,,2013-02-24 19:22:00,
2013-02-24 14:32:00,40.0,33.0,29.74,WNW,297,1.0,6.0,75,0.00,,,0.13,,2013-02-24 19:32:00,
2013-02-24 14:42:00,40.0,33.0,29.74,WNW,297,1.0,6.0,75,0.00,,,0.13,,2013-02-24 19:42:00,
2013-02-24 14:52:00,39.0,32.0,29.74,NW,318,0.0,9.0,76,0.00,,,0.13,,2013-02-24 19:52:00,
2013-02-24 15:02:00,40.0,33.0,29.75,NW,310,2.0,10.0,76,0.00,,,0.13,,2013-02-24 20:02:00,
2013-02-24 15:11:00,40.0,33.0,29.75,NW,310,2.0,10.0,76,0.00,,,0.13,,2013-02-24 20:11:00,
2013-02-24 15:21:00,41.0,33.0,29.74,NNW,333,4.0,8.0,74,0.00,,,0.10,,2013-02-24 20:21:00,
2013-02-24 15:32:00,41.0,33.0,29.75,NW,310,3.0,9.0,73,0.00,,,0.10,,2013-02-24 20:32:00,
2013-02-24 15:42:00,41.0,33.0,29.75,NW,310,3.0,9.0,73,0.00,,,0.10,,2013-02-24 20:42:00,
2013-02-24 15:52:00,40.0,32.0,29.75,NW,318,3.0,12.0,74,0.00,,,0.10,,2013-02-24 20:52:00,
2013-02-24 16:02:00,39.0,32.0,29.75,North,351,2.0,6.0,75,0.00,,,0.10,,2013-02-24 21:02:00,
2013-02-24 16:11:00,39.0,32.0,29.75,North,351,2.0,6.0,75,0.00,,,0.10,,2013-02-24 21:11:00,
2013-02-24 16:21:00,39.0,32.0,29.75,NNW,335,2.0,7.0,75,0.00,,,0.07,,2013-02-24 21:21:00,
2013-02-24 16:32:00,38.0,31.0,29.76,NNW,329,2.0,7.0,77,0.00,,,0.07,,2013-02-24 21:32:00,
2013-02-24 16:42:00,38.0,31.0,29.76,NNW,329,2.0,7.0,77,0.00,,,0.07,,2013-02-24 21:42:00,
2013-02-24 16:52:00,38.0,32.0,29.76,NW,326,1.0,7.0,78,0.00,,,0.07,,2013-02-24 21:52:00,
2013-02-24 17:01:00,37.0,31.0,29.77,WNW,300,1.0,9.0,78,0.00,,,0.07,,2013-02-24 22:01:00,
2013-02-24 17:11:00,37.0,31.0,29.77,WNW,300,1.0,9.0,78,0.00,,,0.07,,2013-02-24 22:11:00,
2013-02-24 17:22:00,37.0,30.0,29.79,NNW,328,3.0,8.0,77,0.00,,,0.05,,2013-02-24 22:22:00,
2013-02-24 17:32:00,36.0,29.0,29.80,NW,321,5.0,12.0,76,0.00,,,0.05,,2013-02-24 22:32:00,
2013-02-24 17:42:00,36.0,29.0,29.80,NW,321,5.0,12.0,76,0.00,,,0.05,,2013-02-24 22:42:00,
2013-02-24 17:52:00,36.0,29.0,29.81,NW,316,4.0,8.0,77,0.00,,,0.05,,2013-02-24 22:52:00,
2013-02-24 18:02:00,35.0,28.0,29.82,NNW,337,4.0,11.0,76,0.00,,,0.05,,2013-02-24 23:02:00,
2013-02-24 18:11:00,35.0,28.0,29.82,NNW,337,4.0,11.0,76,0.00,,,0.05,,2013-02-24 23:11:00,
2013-02-24 18:21:00,35.0,29.0,29.83,NNW,336,3.0,9.0,77,0.00,,,0.04,,2013-02-24 23:21:00,
2013-02-24 18:32:00,34.0,28.0,29.83,NNW,346,1.0,11.0,77,0.00,,,0.04,,2013-02-24 23:32:00,
2013-02-24 18:42:00,34.0,28.0,29.83,NNW,346,1.0,11.0,77,0.00,,,0.04,,2013-02-24 23:42:00,
2013-02-24 18:52:00,34.0,28.0,29.83,NW,318,4.0,14.0,79,0.00,,,0.04,,2013-02-24 23:52:00,
2013-02-24 19:01:00,33.0,27.0,29.84,NW,323,5.0,13.0,79,0.00,,,0.04,,2013-02-25 00:01:00,
2013-02-24 19:11:00,33.0,27.0,29.84,NW,323,5.0,13.0,79,0.00,,,0.04,,2013-02-25 00:11:00,
2013-02-24 19:21:00,33.0,27.0,29.85,WNW,292,4.0,11.0,77,0.00,,,0.04,,2013-02-25 00:21:00,
2013-02-24 19:32:00,33.0,27.0,29.86,NW,313,2.0,8.0,78,0.00,,,0.04,,2013-02-25 00:32:00,
2013-02-24 19:42:00,33.0,27.0,29.86,NW,313,2.0,8.0,78,0.00,,,0.04,,2013-02-25 00:42:00,
2013-02-24 19:52:00,33.0,27.0,29.87,North,10,3.0,7.0,79,0.00,,,0.04,,2013-02-25 00:52:00,
2013-02-24 20:01:00,32.0,27.0,29.88,NW,308,2.0,6.0,81,0.00,,,0.04,,2013-02-25 01:01:00,
2013-02-24 20:11:00,32.0,27.0,29.88,NW,308,2.0,6.0,81,0.00,,,0.04,,2013-02-25 01:11:00,
2013-02-24 20:21:00,32.0,27.0,29.89,NW,311,2.0,8.0,82,0.00,,,0.04,,2013-02-25 01:21:00,
2013-02-24 20:32:00,31.0,27.0,29.89,NNW,328,3.0,9.0,84,0.00,,,0.04,,2013-02-25 01:32:00,
2013-02-24 20:42:00,31.0,27.0,29.89,NNW,328,3.0,9.0,84,0.00,,,0.04,,2013-02-25 01:42:00,
2013-02-24 20:52:00,31.0,27.0,29.90,NNW,338,1.0,8.0,85,0.00,,,0.04,,2013-02-25 01:52:00,
2013-02-24 21:01:00,31.0,27.0,29.91,NNW,327,2.0,4.0,86,0.00,,,0.04,,2013-02-25 02:01:00,
2013-02-24 21:11:00,31.0,27.0,29.91,NNW,327,2.0,4.0,86,0.00,,,0.04,,2013-02-25 02:11:00,
2013-02-24 21:21:00,31.0,27.0,29.91,ESE,110,2.0,6.0,86,0.00,,,0.04,,2013-02-25 02:21:00,
2013-02-24 21:32:00,31.0,27.0,29.91,NW,316,2.0,6.0,86,0.00,,,0.04,,2013-02-25 02:32:00,
2013-02-24 21:42:00,31.0,27.0,29.91,NW,316,2.0,6.0,86,0.00,,,0.04,,2013-02-25 02:42:00,
2013-02-24 21:52:00,30.0,26.0,29.92,WNW,293,3.0,8.0,85,0.00,,,0.04,,2013-02-25 02:52:00,
2013-02-24 22:01:00,30.0,26.0,29.92,NW,322,1.0,7.0,84,0.00,,,0.04,,2013-02-25 03:01:00,
2013-02-24 22:11:00,30.0,26.0,29.92,NW,322,1.0,7.0,84,0.00,,,0.04,,2013-02-25 03:11:00,
2013-02-24 22:21:00,31.0,26.0,29.92,NNW,329,3.0,7.0,83,0.00,,,0.03,,2013-02-25 03:21:00,
2013-02-24 22:32:00,31.0,26.0,29.92,North,360,1.0,6.0,82,0.00,,,0.03,,2013-02-25 03:32:00,
2013-02-24 22:42:00,31.0,26.0,29.92,North,360,1.0,6.0,82,0.00,,,0.03,,2013-02-25 03:42:00,
2013-02-24 22:52:00,31.0,26.0,29.92,NNW,336,2.0,7.0,81,0.00,,,0.03,,2013-02-25 03:52:00,
2013-02-24 23:02:00,31.0,25.0,29.92,NW,326,2.0,10.0,79,0.00,,,0.03,,2013-02-25 04:02:00,
2013-02-24 23:11:00,31.0,25.0,29.92,NW,326,2.0,10.0,79,0.00,,,0.03,,2013-02-25 04:11:00,
2013-02-24 23:21:00,31.0,25.0,29.92,NNW,344,3.0,7.0,79,0.00,,,0.03,,2013-02-25 04:21:00,
2013-02-24 23:32:00,31.0,24.0,29.93,NW,307,3.0,10.0,76,0.00,,,0.02,,2013-02-25 04:32:00,
2013-02-24 23:42:00,31.0,24.0,29.93,NW,307,3.0,10.0,76,0.00,,,0.02,,2013-02-25 04:42:00,
2013-02-24 23:52:00,31.0,24.0,29.93,NNW,342,2.0,11.0,74,0.00,,,0.02,,2013-02-25 04:52:00,